TimeCDT,TemperatureF,Dew PointF,Humidity,Sea Level PressureIn,VisibilityMPH,Wind Direction,Wind SpeedMPH,Gust SpeedMPH,PrecipitationIn,Events,Conditions,WindDirDegrees,DateUTC
12:53 AM,64.9,55.0,70,29.93,10.0,NW,6.9,-,N/A,,Clear,320,2013-06-18 05:53:00
1:53 AM,62.1,55.0,78,29.93,10.0,NNW,5.8,-,N/A,,Clear,330,2013-06-18 06:53:00
2:53 AM,62.1,55.0,78,29.92,10.0,NNW,5.8,-,N/A,,Clear,330,2013-06-18 07:53:00
3:53 AM,60.1,55.9,86,29.94,10.0,West,4.6,-,N/A,,Clear,280,2013-06-18 08:53:00
4:53 AM,60.1,55.9,86,29.95,10.0,NW,5.8,-,N/A,,Clear,310,2013-06-18 09:53:00
5:53 AM,60.1,57.0,90,29.96,10.0,North,9.2,-,N/A,,Partly Cloudy,350,2013-06-18 10:53:00
6:53 AM,63.0,57.9,84,29.98,10.0,SW,3.5,-,N/A,,Clear,230,2013-06-18 11:53:00
7:53 AM,68.0,59.0,73,29.97,10.0,ENE,11.5,18.4,N/A,,Clear,60,2013-06-18 12:53:00
8:53 AM,69.1,59.0,70,29.99,10.0,East,6.9,-,N/A,,Scattered Clouds,80,2013-06-18 13:53:00
9:53 AM,72.0,60.1,66,30.01,10.0,Variable,4.6,-,N/A,,Clear,0,2013-06-18 14:53:00
10:53 AM,75.0,60.1,60,30.01,10.0,NNE,5.8,16.1,N/A,,Clear,30,2013-06-18 15:53:00
11:53 AM,75.9,60.1,58,30.01,10.0,ENE,10.4,-,N/A,,Clear,70,2013-06-18 16:53:00
12:53 PM,78.1,61.0,56,30.01,10.0,East,10.4,-,N/A,,Clear,90,2013-06-18 17:53:00
1:53 PM,80.1,60.1,50,30.00,10.0,East,9.2,-,N/A,,Clear,90,2013-06-18 18:53:00
2:53 PM,77.0,57.9,52,30.00,10.0,ENE,8.1,-,N/A,,Mostly Cloudy,70,2013-06-18 19:53:00
3:53 PM,80.1,59.0,48,29.99,10.0,ENE,8.1,-,N/A,,Partly Cloudy,70,2013-06-18 20:53:00
4:53 PM,80.1,59.0,48,29.98,10.0,East,10.4,19.6,N/A,,Partly Cloudy,90,2013-06-18 21:53:00
5:53 PM,77.0,57.0,50,29.98,10.0,East,6.9,-,N/A,,Mostly Cloudy,90,2013-06-18 22:53:00
6:53 PM,78.1,59.0,52,29.97,10.0,East,8.1,-,N/A,,Mostly Cloudy,100,2013-06-18 23:53:00
7:53 PM,75.9,57.0,52,29.97,10.0,East,10.4,-,N/A,,Clear,90,2013-06-19 00:53:00
8:53 PM,72.0,57.0,59,29.99,10.0,East,5.8,-,N/A,,Clear,80,2013-06-19 01:53:00
9:53 PM,68.0,57.9,70,30.01,10.0,East,4.6,-,N/A,,Clear,90,2013-06-19 02:53:00
10:53 PM,68.0,57.9,70,30.01,10.0,East,5.8,-,N/A,,Clear,90,2013-06-19 03:53:00
11:53 PM,64.9,57.9,78,30.01,10.0,East,5.8,-,N/A,,Scattered Clouds,100,2013-06-19 04:53:00